Weather History for Medicine Lodge, KS

Change the Weather History Date:

Wednesday, June 12, 2013

  Actual Average Record
Temperature  
Mean Temperature 87 °F 76 °F  
Max Temperature 102 °F 88 °F 108 °F (1924)
Min Temperature 71 °F 64 °F 44 °F (1910)
Degree Days  
Heating Degree Days 0 0  
Month to date heating degree days 4 0  
Since 1 June heating degree days 4 0  
Since 1 July heating degree days 4523 4455  
Cooling Degree Days 22 11  
Month to date cooling degree days 91 112  
Year to date cooling degree days 234 268  
Since 1 June cooling degree days 91 112  
Growing Degree Days 36 (Base 50)    
Moisture  
Dew Point 64 °F    
Average Humidity 52    
Maximum Humidity 79    
Minimum Humidity 24    
Precipitation  
Precipitation 0.00 in 0.16 in 3.39 in (2005)
Month to date precipitation 1.00 1.86  
Year to date precipitation 11.35 11.60  
Snow  
Snow 0.00 in 0.00 in - ()
Month to date snowfall 0.0 0.0  
Since 1 June snowfall 0.0 0.0  
Since 1 July snowfall 25.0 8.5  
Snow Depth 0.00 in    
Sea Level Pressure  
Sea Level Pressure 29.81 in    
Wind  
Wind Speed 8 mph (SSW)    
Max Wind Speed 16 mph    
Max Gust Speed 21 mph    
T = Trace of Precipitation, MM = Missing Value Source: NWS Daily Summary

Daily Weather History Graph

Daily Weather History Graph

Search for Another Location

Airport:

Trip Planner

Search our weather history database for the weather conditions in past years. The results will help you decide how hot, cold, wet, or windy it might be!

Date:

Astronomy

Jun. 12, 2013 Rise Set
Actual Time 6:13 AM CDT 8:55 PM CDT
Civil Twilight 5:42 AM CDT 9:26 PM CDT
Nautical Twilight 5:03 AM CDT 10:04 PM CDT
Astronomical Twilight 4:20 AM CDT 10:48 PM CDT
Moon 9:50 AM CDT (6/12) 11:36 PM CDT (6/12)
Length of Visible Light 15h 43m
Length of Day
14h 42m
Waxing Crescent, 14% of the Moon is Illuminated
Jun 12
Waxing Crescent
Jun 16
First Quarter
Jun 23
Full
Jun 29
Last Quarter
Jul 8
New

Hourly Weather History & Observations

Time (CDT) Temp. Heat Index Dew Point Humidity Pressure Visibility Wind Dir Wind Speed Gust Speed Precip Events Conditions
12:56 AM 78.1 °F - 66.0 °F 66% 29.75 in - South 10.4 mph 18.4 mph N/A   Unknown
1:56 AM 75.9 °F - 66.9 °F 74% 29.77 in - South 9.2 mph - N/A   Unknown
2:56 AM 75.0 °F - 66.9 °F 76% 29.76 in - South 10.4 mph - N/A   Unknown
3:56 AM 75.9 °F - 64.9 °F 69% 29.75 in - South 12.7 mph - N/A   Unknown
4:56 AM 73.9 °F - 64.9 °F 73% 29.76 in - South 9.2 mph - N/A   Unknown
5:56 AM 72.0 °F - 64.0 °F 76% 29.77 in - South 10.4 mph - N/A   Unknown
6:56 AM 72.0 °F - 64.0 °F 76% 29.78 in - South 9.2 mph - N/A   Unknown
7:56 AM 75.0 °F - 64.0 °F 69% 29.79 in - SSW 8.1 mph - N/A   Unknown
8:56 AM 80.1 °F 81.5 °F 63.0 °F 56% 29.80 in - SSW 8.1 mph - N/A   Unknown
9:56 AM 84.9 °F 84.8 °F 60.1 °F 43% 29.81 in - WSW 13.8 mph - N/A   Unknown
10:56 AM 89.1 °F 89.0 °F 61.0 °F 39% 29.81 in - West 9.2 mph - N/A   Unknown
11:56 AM 91.0 °F 91.9 °F 63.0 °F 39% 29.83 in - West 6.9 mph - N/A   Unknown
12:56 PM 93.9 °F 95.6 °F 64.0 °F 37% 29.83 in - WNW 9.2 mph - N/A   Unknown
1:56 PM 97.0 °F 99.3 °F 64.0 °F 34% 29.82 in - North 6.9 mph - N/A   Unknown
2:56 PM 100.0 °F 103.0 °F 64.0 °F 31% 29.82 in - Variable 3.5 mph - N/A   Unknown
3:56 PM 100.9 °F 101.0 °F 59.0 °F 25% 29.81 in - North 4.6 mph - N/A   Unknown
4:56 PM 100.9 °F 100.5 °F 57.9 °F 24% 29.81 in - WNW 5.8 mph - N/A   Unknown
5:56 PM 100.0 °F 101.2 °F 61.0 °F 28% 29.80 in - NNW 6.9 mph - N/A   Unknown
6:56 PM 98.1 °F 99.6 °F 63.0 °F 31% 29.81 in - South 4.6 mph - N/A   Unknown
7:56 PM 96.1 °F 99.3 °F 66.0 °F 37% 29.82 in - South 3.5 mph - N/A   Unknown
8:56 PM 90.0 °F 91.7 °F 64.9 °F 43% 29.84 in - ENE 6.9 mph - N/A   Unknown
9:56 PM 84.0 °F 85.8 °F 64.9 °F 53% 29.86 in - ENE 9.2 mph - N/A   Unknown
10:56 PM 81.0 °F 83.0 °F 66.0 °F 60% 29.89 in - ENE 8.1 mph - N/A   Unknown
11:56 PM 82.9 °F 84.6 °F 64.9 °F 54% 29.90 in - ENE 12.7 mph - N/A   Unknown